ONEWEB-0187 (48221 NORAD) Tracking and Keplerian Element Data

This shows tracking and keplerian element data for the satellite.

Feedback or suggestion? Click here.




ElementValue
Catalog48221
NameONEWEB-0187
Epoch Orbit180
Epoch Day136.75001157
Epoch Year2021
RAAN305.7907
Inclination87.4149
Eccentricity0.0009449
Argument of Perigee191.6409
Mean Anonmoly196.1144
Mean Motion15.25226937
Decay Rate-0.01409818
L11 48221U 21031M 21136.75001157 -.01409818 00000-0 -61908-1 0 9991
L22 48221 87.4149 305.7907 0009449 191.6409 196.1144 15.25226937 1806

Live tracking and technical data element details for ONEWEB-0187 (NORAD 48221). ONEWEB-0187 can be tracked NOW for your location showing map with azimuth and elevation plus other details from your city location.

Track the satellite on the map from your city or location and see movement details for azimuth, elevation, latitude, longitude, range, height, and movement on the map or in text.







IsCatalogInMostPopularTable: catalog: 48221, numindb: 6
Update: records affected: 1



GetName: 48221 ONEWEB-0187

Hit Count: updated at: Mon, 17 May 2021 16:19:36 GMT